Home   Weather   Black Mountain   Past weeks

Flag for USA Past Weather in Black Mountain, North Carolina, USA — Yesterday and Last 2 Weeks

Now
58 °F

Clear.


Feels Like: 56 °F
Forecast: 51 / 72 °F
Wind: 10 mph from North

Location: Asheville Regional Airport

Current Time: Sep 29, 2016 at 11:19:17 PM

Latest Report: Sep 29, 2016 at 10:54 PM


Visibility: 10 mi

Pressure: 30.01 "Hg (27.52 "Hg at 729m altitude)

Humidity: 75%

Dew Point: 50 °F

Location of Black MountainLocation

Past Weather in Black Mountain — Graph

°F

Black Mountain Temperature Yesterday

Maximum temperature yesterday: 81 °F (at 1:54 PM)
Minimum temperature yesterday: 57 °F (at 11:54 PM)
Average temperature yesterday: 68 °F

High & Low Weather Summary for the Past Weeks

 TemperatureHumidityPressure
High89 °F (Sep 24, 3:54 PM)97% (Sep 18, 7:03 AM)30.27 "Hg (Sep 18, 7:03 AM)
Low51 °F (Sep 29, 6:54 AM)23% (Sep 24, 3:54 PM)29.84 "Hg (Sep 27, 3:54 PM)
Average71 °F72%30.06 "Hg
* Reported Sep 14 9:54 PM — Sep 29 9:54 PM, Black Mountain, Weather by CustomWeather, © 2016

Note: Actual official high and low records may vary slightly from our data, if they occured in-between our weather recording intervals... More about our weather records

Advertising

Black Mountain Weather History for the Previous 24 Hours

Scroll right to see more
 ConditionsComfort  
Time TempWeatherWind HumidityBarometerVisibility
9:54 PM
Thu, Sep 29
59 °FClear.12 mph72%30.02 "Hg10 mi
8:54 PM60 °FPassing clouds.13 mph72%30.02 "Hg10 mi
7:54 PM61 °FPartly cloudy.17 mph70%30.01 "Hg10 mi
7:01 PM64 °FPartly sunny.15 mph63%30.02 "Hg10 mi
5:54 PM74 °FBroken clouds.12 mph38%29.93 "Hg10 mi
4:54 PM76 °FBroken clouds.15 mph37%29.91 "Hg10 mi
3:54 PM75 °FPartly sunny.10 mph40%29.91 "Hg9 mi
2:54 PM75 °FBroken clouds.14 mph47%29.92 "Hg10 mi
1:54 PM74 °FPartly sunny.10 mph45%29.94 "Hg10 mi
12:54 PM73 °FScattered clouds.9 mph51%29.95 "Hg10 mi
11:54 AM70 °FPartly sunny.No wind59%29.96 "Hg10 mi
10:54 AM65 °FScattered clouds.3 mph63%29.97 "Hg10 mi
9:54 AM58 °FScattered clouds.No wind72%29.96 "Hg10 mi
8:54 AM54 °FPartly sunny.No wind80%29.96 "Hg10 mi
7:54 AM51 °FOvercast.No wind86%29.96 "Hg10 mi
6:54 AM51 °FPassing clouds.No wind89%29.94 "Hg10 mi
5:54 AM53 °FClear.No wind86%29.92 "Hg10 mi
4:54 AM56 °FClear.5 mph77%29.91 "Hg10 mi
3:54 AM54 °FClear.5 mph86%29.90 "Hg10 mi
2:54 AM54 °FClear.No wind86%29.91 "Hg10 mi
1:54 AM54 °FClear.No wind90%29.91 "Hg10 mi
12:54 AM55 °FClear.6 mph90%29.93 "Hg10 mi
11:54 PM
Wed, Sep 28
57 °FClear.No wind87%29.92 "Hg10 mi
Weather by CustomWeather, © 2016

See weather overviewHow to use our weather pages